Miscellaneous Local Product
Issued by NWS North Platte, NE

Home | Current Version | Previous Version | Text Only | Print | Product List | Glossary On
Versions: 1 2 3 4 5 6 7 8 9 10 11 12 13 14 15 16 17 18 19 20 21 22 23 24 25 26 27 28 29 30 31 32 33 34 35 36 37 38 39 40 41 42 43 44 45 46 47 48 49 50
000
AXUS43 KLBF 151710
MISLBF


WESTERN AND NORTH CENTRAL NEBRASKA HOURLY WEATHER ROUNDUP
NATIONAL WEATHER SERVICE NORTH PLATTE NE
1100 AM CST SUN JAN 15 2017

NOTE: "FAIR" INDICATES FEW OR NO CLOUDS BELOW 12,000 FEET WITH NO
SIGNIFICANT WEATHER AND/OR OBSTRUCTIONS TO VISIBILITY.

NOTE: STATIONS NOT REPORTING VARIABLES SUCH AS SKY/WEATHER OR
PRESSURE ARE PROVIDED BY RAWS AND APRS NETWORKS AND ARE NOT UNDER
NATIONAL WEATHER SERVICE QUALITY CONTROL.

...OBSERVATIONS IN AND NEAR THE EASTERN PANHANDLE OF NEBRASKA...

CITY           SKY/WX    TMP DP  RH WIND       PRES   REMARKS
PINE RIDGE     CLOUDY    19  14  81 CALM      30.14F
CHADRON        CLOUDY    17  14  88 W3        30.15F
ALLIANCE       SUNNY     27  22  81 CALM      30.12S
SIDNEY         CLOUDY    32  22  66 N6        30.13R WCI  26
CRESCENT LAKE    N/A     26  20  79 CALM        N/A
$$

...OBSERVATIONS IN NORTHERN NEBRASKA AND FAR SOUTHERN SOUTH DAKOTA...

CITY           SKY/WX    TMP DP  RH WIND       PRES   REMARKS
WINNER         FAIR      27  19  72 CALM      30.20R
VALENTINE      SUNNY     30  20  66 W6        30.16F WCI  24
THEDFORD       CLOUDY    28  26  91 CALM      30.17F
AINSWORTH      SUNNY     32  26  79 S7        30.17F WCI  26
O`NEILL        SUNNY     32  25  74 S7        30.23F WCI  26
ORD            CLOUDY    29  21  72 CALM      30.23F
BROKEN BOW     CLOUDY    29  23  78 SE6       30.21S WCI  23
VALENTINE NWR    N/A     30  22  72 CALM        N/A
BUTTE            N/A     26  21  82 S5          N/A  WCI  20
HALSEY           N/A     30  22  73 CALM        N/A
SARGENT          N/A     30  23  75 SE3         N/A
CHAMBERS         N/A     33  23  67 CALM        N/A
EWING            N/A     29  24  80 S3          N/A
$$

...OBSERVATIONS IN SOUTHWEST NEBRASKA AND FAR NORTHEAST COLORADO...

CITY           SKY/WX    TMP DP  RH WIND       PRES   REMARKS
WRAY           MIX PCPN  30  28  93 CALM      30.14
HOLYOKE        PTSUNNY   32  27  80 CALM      30.14S
IMPERIAL       CLOUDY    28  21  75 SE7       30.16S WCI  21
OGALLALA       CLOUDY    30  23  75 CALM      30.16S
NORTH PLATTE   CLOUDY    29  21  72 CALM      30.19F
MCCOOK         MIX PCPN  29  29 100 SE5       30.20F FOG     WCI  24
LEXINGTON      CLOUDY    31  23  71 S8        30.22F WCI  24
STAPLETON        N/A     32  23  70 CALM        N/A
GOTHENBURG       N/A     32  22  68 SE3         N/A
CALLAWAY         N/A     30  22  72 S8          N/A  WCI  22
$$

...OBSERVATIONS IN CENTRAL LINCOLN COUNTY AREA...

CITY           SKY/WX    TMP DP  RH WIND       PRES   REMARKS
N.P. AIRPORT   CLOUDY    29  21  72 CALM      30.19F
N.P. DOWNTOWN    N/A     31  23  72 CALM        N/A
N.P. SOUTHEAST   N/A     30  22  72 CALM        N/A
N.P. HILLCREST   N/A     31  24  73 CALM        N/A
$$

...SOME OBSERVATIONS FROM AROUND THE REGION...

CITY           SKY/WX    TMP DP  RH WIND       PRES   REMARKS
LARAMIE        CLOUDY    13   8  81 SW7       30.07F WCI   3
CHEYENNE       CLOUDY    30  23  75 NW3       30.09S
DENVER         CLOUDY    31  27  85 W6        30.09F FOG     WCI  25
AKRON          CLOUDY    31  21  66 CALM      30.10F
SCOTTSBLUFF    CLOUDY    26  21  81 W6        30.14S WCI  19
RAPID CITY     CLOUDY    19   6  57 SE5       30.13R WCI  12
BISMARCK       SUNNY     -4 -10  75 E5        30.15S WCI -15
PIERRE         CLOUDY     6   1  80 W9        30.20S WCI  -8
SIOUX FALLS    MOSUNNY   24  17  74 NE6       30.28S WCI  17
OMAHA          CLOUDY    33  17  51 S7        30.34F WCI  27
GRAND ISLAND   FRZ RAIN  28  27  96 S7        30.27F WCI  21
KANSAS CITY    FRZ DRZL  31  28  89 E8        30.33F FOG     WCI  23
WICHITA        LGT RAIN  33  33 100 N5        30.27R FOG     WCI  29
OKLAHOMA CITY  DRZL/FOG  34  34 100 N6        30.24R VSB 1/2 WCI  29
DALLAS         DRZL/FOG  48  48 100 N3        30.17F VSB 1/4
AMARILLO       MIX PCPN  32  32 100 NE6       30.09S WCI  26
DODGE CITY     MIX PCPN  31  30  96 E8        30.18F FOG     WCI  23
HAYS           LGT SNOW  30  28  92 E10       30.22F FOG     WCI  21
GOODLAND       FRZ RAIN  31  29  92 E6        30.13F FOG     WCI  25
$$




USA.gov is the U.S. government's official web portal to all federal, state and local government web resources and services.